Regional Weather Roundup
Issued by NWS

Home | Current Version | Previous Version | Text Only | Print | Product List | Glossary Off
Versions: 1 2 3 4 5 6 7 8 9 10 11 12 13 14 15 16 17 18 19 20 21 22 23 24 25 26 27 28 29 30 31 32 33 34 35 36 37 38 39 40 41 42 43 44 45 46 47 48 49 50

000
ASUS45 KBOU 290307
RWRCO

WEATHER ROUNDUP FOR COLORADO
NATIONAL WEATHER SERVICE DENVER/BOULDER CO
900 PM MDT THU AUG 28 2014

NOTE: "FAIR" INDICATES FEW OR NO CLOUDS BELOW 12000 FEET WITH NO
SIGNIFICANT WEATHER AND/OR OBSTRUCTIONS TO VISIBILITY.

COZ001>005-013-030-031-290400-
...NORTHWEST COLORADO...

CITY           SKY/WX    TMP DP  RH WIND       PRES   REMARKS
CRAIG          CLEAR     58  49  72 CALM      30.21R
HAYDEN         PTCLDY    57  48  72 SE9       30.24R
MEEKER         CLEAR     58  52  80 NE5       30.25R
MOUNT WERNER   NOT AVBL
STEAMBOAT SPGS PTCLDY    54  49  86 E3        30.27R
WALDEN         CLEAR     54  43  66 CALM      30.32R
$$

COZ006>008-011-290400-
...WEST CENTRAL VALLEYS...

CITY           SKY/WX    TMP DP  RH WIND       PRES   REMARKS
GRAND JUNCTION MOCLDY    66  56  70 NE6       30.14R
MONTROSE       CLEAR     64  50  60 S7        30.24R
EAGLE          MOCLDY    59  48  67 E7        30.28R
RIFLE          PTCLDY    62  54  74 SE6       30.19R
DELTA          CLEAR     66  55  67 N6        30.19S
NUCLA          NOT AVBL
$$

COZ017>023-064>068-290400-
...SOUTHWEST COLORADO...

CITY           SKY/WX    TMP DP  RH WIND       PRES   REMARKS
DURANGO        CLEAR     64  37  36 N8        30.22R
CORTEZ         CLEAR     62  46  55 NE6       30.22R
PAGOSA SPRINGS CLEAR     62  30  30 N7        30.30R
TELLURIDE      PTCLDY    54  39  58 CALM      30.42R
WOLF CREEK PAS CLEAR     41  30  65 N14       30.55R
$$

COZ009-010-012-014-032>034-037-058>063-290400-
...CENTRAL COLORADO...

CITY           SKY/WX    TMP DP  RH WIND       PRES   REMARKS
ASPEN          MOCLDY    52  45  77 S6        30.33R
BUENA VISTA    PTCLDY    57  37  48 NW9       30.33R
COPPER MTN     PTCLDY    41  36  81 W18       30.56R
BERTHOUD PASS  FOG       34  32  93 NW22G31   30.57R VSB 1/2 WCI  22
COTTONWOOD PAS CLOUDY    52  34  50 NW3       30.44R
GUNNISON       CLEAR     55  37  50 CALM      30.34R
KREMMLING      PTCLDY    52  45  76 S3        30.32R
LEADVILLE      PTCLDY    42  37  82 N3        30.44R
MONARCH PASS   CLEAR     41  32  70 NW6       30.65R
SALIDA         CLOUDY    58  45  60 S6        30.37R
SUNLIGHT       PTCLDY    46  41  81 W5        30.53R
WILKERSON PASS NOT AVBL
$$

COZ069>075-290400-
...SAN LUIS VALLEY/SANGRE DE CRISTO MOUNTAINS...

CITY           SKY/WX    TMP DP  RH WIND       PRES   REMARKS
ALAMOSA        CLEAR     54  46  74 CALM      30.28R
LA VETA PASS   NOT AVBL
SAGUACHE       NOT AVBL
$$

COZ035-036-038>040-290400-
...NORTHERN COLORADO FRONT RANGE...

CITY           SKY/WX    TMP DP  RH WIND       PRES   REMARKS
DENVER INTL AP MOCLDY    59  50  72 SW10      30.14R
DMNS CITY PARK   N/A     58  49  72 S2        30.14R
AURORA         PTCLDY    56  50  81 S8        30.16S
FRONT RANGE AP NOT AVBL
ERIE MUNI ARPT PTCLDY    57  50  78 CALM      30.13R
BOULDER MUN AP PTCLDY    59  52  77 SE3       30.13R
CENTENNIAL     PTCLDY    55  48  77 S5        30.17S
BROOMFIELD     PTCLDY    59  50  72 VRB5      30.16R
FORT COLLINS   PTCLDY    57  50  77 S8        30.13R
LONGMONT       PTCLDY    56  50  80 CALM      30.14R
$$

COZ041-046-047-076>085-087-088-290400-
...PIKES PEAK/PALMER DIVIDE AND SOUTHERN FOOTHILLS...

CITY           SKY/WX    TMP DP  RH WIND       PRES   REMARKS
COLO. SPRINGS  PTCLDY    56  46  69 W7        30.22R
A. F. ACADEMY  PTCLDY    51  47  86 N6        30.22S
ELLICOTT       PTCLDY    56  46  69 N8        30.19R
FALCON         PTCLDY    53  43  67 NW6       30.24S
FORT CARSON    PTCLDY    56  49  76 SW3       30.19F
LIMON          MOCLDY    56  50  80 NW8       30.14R
MONUMENT HILL  PTCLDY    46  45  93 W8        30.24R
TRINIDAD       CLOUDY    61  48  62 N8        30.22R
$$

COZ042>045-048>051-090-091-290400-
...NORTHEAST COLORADO...

CITY           SKY/WX    TMP DP  RH WIND       PRES   REMARKS
GREELEY ARPT   PTCLDY    59  48  67 SW3       30.11R
AKRON          PTCLDY    58  55  90 W9        30.08S
BURLINGTON     PTCLDY    63  55  75 NW7       30.06R
WRAY             N/A     61  58  91 W5        30.02R
STERLING       PTCLDY    64  57  77 W5        30.03S
HOLYOKE        PTCLDY    63  59  88 W5        30.01R
FORT MORGAN    PTCLDY    59  52  77 W6        30.10R
$$

COZ086-089-092>099-290400-
...SOUTHEAST COLORADO...

CITY           SKY/WX    TMP DP  RH WIND       PRES   REMARKS
PUEBLO         PTCLDY    59  52  77 W9        30.14S
LA JUNTA       CLOUDY    62  56  80 W9        30.09F
LAMAR          CLOUDY    70  53  54 NW8       30.04R
SPRINGFIELD      N/A     65  52  62 NW17      30.09R
$$


USA.gov is the U.S. government's official web portal to all federal, state and local government web resources and services.